Location: Yamada Observatory
(36.7980°N, 119.2990°W)
Time: 20:02:28
(UTC-07:00)

OTV 5 (USA 277) - Visible Passes

Search period start: 26 April 2018 00:00
Search period end: 06 May 2018 00:00
Orbit: 308 x 325 km, 54.5° (Epoch: 25 April)

Date Brightness Start Highest point End Pass type
(mag) Time Alt. Az. Time Alt. Az. Time Alt. Az.
01 May ? 21:52:00 10° N 21:52:35 12° N 21:52:35 12° N visible
02 May ? 22:05:35 10° NNW 22:06:21 16° NNW 22:06:21 16° NNW visible
03 May ? 22:19:43 10° NW 22:20:09 13° NW 22:20:09 13° NW visible
04 May ? 21:00:11 10° NNW 21:02:20 21° NE 21:03:06 18° ENE visible
05 May ? 21:14:02 10° NW 21:16:43 61° NE 21:16:59 56° ENE visible
